Time,TemperatureF,DewpointF,PressureIn,WindDirection,WindDirectionDegrees,WindSpeedMPH,WindSpeedGustMPH,Humidity,HourlyPrecipIn,Conditions,Clouds,dailyrainin,SoftwareType,DateUTC
2013-06-29 00:01:00,70.0,66.3,29.68,North,360,0.0,9.0,88,0.00,,,0.00,Weather View 32 v70,2013-06-29 04:01:00,
2013-06-29 00:02:00,70.0,66.6,29.68,North,360,0.0,9.0,89,0.00,,,0.00,Weather View 32 v70,2013-06-29 04:02:00,
2013-06-29 00:07:00,70.0,66.9,29.68,North,360,0.0,9.0,90,0.00,,,0.00,Weather View 32 v70,2013-06-29 04:07:00,
2013-06-29 00:12:00,70.0,66.9,29.68,North,360,0.0,9.0,90,0.00,,,0.00,Weather View 32 v70,2013-06-29 04:12:00,
2013-06-29 00:17:00,69.0,65.9,29.68,North,360,0.0,9.0,90,0.00,,,0.00,Weather View 32 v70,2013-06-29 04:17:00,
2013-06-29 00:22:00,69.0,65.9,29.68,North,360,0.0,9.0,90,0.00,,,0.00,Weather View 32 v70,2013-06-29 04:22:00,
2013-06-29 00:27:00,69.0,65.9,29.68,North,360,0.0,7.0,90,0.00,,,0.00,Weather View 32 v70,2013-06-29 04:27:00,
2013-06-29 00:32:00,69.0,65.9,29.68,North,360,0.0,7.0,90,0.00,,,0.00,Weather View 32 v70,2013-06-29 04:32:00,
2013-06-29 00:37:00,69.0,66.3,29.68,North,360,0.0,7.0,91,0.00,,,0.00,Weather View 32 v70,2013-06-29 04:37:00,
2013-06-29 00:42:00,69.0,66.3,29.67,North,360,0.0,4.0,91,0.00,,,0.00,Weather View 32 v70,2013-06-29 04:42:00,
2013-06-29 00:47:00,68.0,65.3,29.67,North,360,0.0,4.0,91,0.00,,,0.00,Weather View 32 v70,2013-06-29 04:47:00,
2013-06-29 00:52:00,68.0,65.9,29.67,North,360,0.0,2.0,93,0.00,,,0.00,Weather View 32 v70,2013-06-29 04:52:00,
2013-06-29 00:57:00,68.0,65.9,29.67,North,360,0.0,2.0,93,0.00,,,0.00,Weather View 32 v70,2013-06-29 04:57:00,
2013-06-29 01:02:00,67.0,65.5,29.67,North,360,0.0,2.0,95,0.00,,,0.00,Weather View 32 v70,2013-06-29 05:02:00,
2013-06-29 01:07:00,67.0,65.5,29.67,North,360,0.0,2.0,95,0.00,,,0.00,Weather View 32 v70,2013-06-29 05:07:00,
2013-06-29 01:12:00,67.0,66.1,29.67,North,360,0.0,1.0,97,0.00,,,0.00,Weather View 32 v70,2013-06-29 05:12:00,
2013-06-29 01:17:00,67.0,66.4,29.66,North,360,0.0,1.0,98,0.00,,,0.00,Weather View 32 v70,2013-06-29 05:17:00,
2013-06-29 01:22:00,66.0,65.4,29.66,North,360,0.0,1.0,98,0.00,,,0.00,Weather View 32 v70,2013-06-29 05:22:00,
2013-06-29 01:27:00,66.0,65.4,29.66,North,360,0.0,0.0,98,0.00,,,0.00,Weather View 32 v70,2013-06-29 05:27:00,
2013-06-29 01:32:00,66.0,65.4,29.66,NW,315,3.0,3.0,98,0.00,,,0.00,Weather View 32 v70,2013-06-29 05:32:00,
2013-06-29 01:37:00,66.0,65.4,29.66,NW,315,1.0,4.0,98,0.00,,,0.00,Weather View 32 v70,2013-06-29 05:37:00,
2013-06-29 01:42:00,67.0,66.4,29.66,NW,315,0.0,4.0,98,0.00,,,0.00,Weather View 32 v70,2013-06-29 05:42:00,
2013-06-29 01:47:00,67.0,66.1,29.65,NW,315,0.0,4.0,97,0.00,,,0.00,Weather View 32 v70,2013-06-29 05:47:00,
2013-06-29 01:52:00,67.0,66.1,29.65,NW,315,0.0,4.0,97,0.00,,,0.00,Weather View 32 v70,2013-06-29 05:52:00,
2013-06-29 01:57:00,66.0,65.4,29.65,NW,315,0.0,4.0,98,0.00,,,0.00,Weather View 32 v70,2013-06-29 05:57:00,
2013-06-29 02:02:00,66.0,65.4,29.65,NW,315,0.0,4.0,98,0.00,,,0.00,Weather View 32 v70,2013-06-29 06:02:00,
2013-06-29 02:07:00,66.0,65.4,29.65,NW,315,0.0,4.0,98,0.00,,,0.00,Weather View 32 v70,2013-06-29 06:07:00,
2013-06-29 02:12:00,66.0,65.4,29.65,NW,315,0.0,4.0,98,0.00,,,0.00,Weather View 32 v70,2013-06-29 06:12:00,
2013-06-29 02:17:00,65.0,64.4,29.65,NW,315,0.0,4.0,98,0.00,,,0.00,Weather View 32 v70,2013-06-29 06:17:00,
2013-06-29 02:22:00,65.0,64.4,29.65,NW,315,0.0,4.0,98,0.00,,,0.00,Weather View 32 v70,2013-06-29 06:22:00,
2013-06-29 02:27:00,65.0,64.4,29.65,NW,315,0.0,4.0,98,0.00,,,0.00,Weather View 32 v70,2013-06-29 06:27:00,
2013-06-29 02:32:00,65.0,64.4,29.64,NW,315,0.0,4.0,98,0.00,,,0.00,Weather View 32 v70,2013-06-29 06:32:00,
2013-06-29 02:37:00,65.0,64.4,29.64,NW,315,0.0,4.0,98,0.00,,,0.00,Weather View 32 v70,2013-06-29 06:37:00,
2013-06-29 02:42:00,64.0,63.1,29.64,NW,315,0.0,2.0,97,0.00,,,0.00,Weather View 32 v70,2013-06-29 06:42:00,
2013-06-29 02:47:00,64.0,63.1,29.64,NW,315,0.0,0.0,97,0.00,,,0.00,Weather View 32 v70,2013-06-29 06:47:00,
2013-06-29 02:52:00,64.0,62.8,29.64,NW,315,0.0,0.0,96,0.00,,,0.00,Weather View 32 v70,2013-06-29 06:52:00,
2013-06-29 02:57:00,64.0,62.8,29.64,NW,315,0.0,0.0,96,0.00,,,0.00,Weather View 32 v70,2013-06-29 06:57:00,
2013-06-29 03:02:00,65.0,63.8,29.64,NW,315,0.0,1.0,96,0.00,,,0.00,Weather View 32 v70,2013-06-29 07:02:00,
2013-06-29 03:07:00,65.0,63.8,29.64,NW,315,2.0,2.0,96,0.00,,,0.00,Weather View 32 v70,2013-06-29 07:07:00,
2013-06-29 03:12:00,65.0,63.8,29.64,NW,315,1.0,2.0,96,0.00,,,0.00,Weather View 32 v70,2013-06-29 07:12:00,
2013-06-29 03:17:00,65.0,63.8,29.64,NW,315,0.0,2.0,96,0.00,,,0.00,Weather View 32 v70,2013-06-29 07:17:00,
2013-06-29 03:22:00,65.0,63.8,29.64,NW,315,0.0,2.0,96,0.00,,,0.00,Weather View 32 v70,2013-06-29 07:22:00,
2013-06-29 03:27:00,65.0,63.8,29.64,NW,315,0.0,2.0,96,0.00,,,0.00,Weather View 32 v70,2013-06-29 07:27:00,
2013-06-29 03:32:00,65.0,63.8,29.63,NW,315,0.0,2.0,96,0.00,,,0.00,Weather View 32 v70,2013-06-29 07:32:00,
2013-06-29 03:37:00,65.0,63.8,29.63,NW,315,0.0,2.0,96,0.00,,,0.00,Weather View 32 v70,2013-06-29 07:37:00,
2013-06-29 03:42:00,65.0,63.8,29.63,NW,315,0.0,2.0,96,0.00,,,0.00,Weather View 32 v70,2013-06-29 07:42:00,
2013-06-29 03:47:00,65.0,63.8,29.63,NW,315,0.0,2.0,96,0.00,,,0.00,Weather View 32 v70,2013-06-29 07:47:00,
2013-06-29 03:52:00,65.0,63.5,29.63,NW,315,0.0,2.0,95,0.00,,,0.00,Weather View 32 v70,2013-06-29 07:52:00,
2013-06-29 03:57:00,65.0,63.5,29.63,NW,315,0.0,2.0,95,0.00,,,0.00,Weather View 32 v70,2013-06-29 07:57:00,
2013-06-29 04:02:00,65.0,63.5,29.63,NW,315,0.0,2.0,95,0.00,,,0.00,Weather View 32 v70,2013-06-29 08:02:00,
2013-06-29 04:07:00,65.0,63.5,29.63,NW,315,0.0,2.0,95,0.00,,,0.00,Weather View 32 v70,2013-06-29 08:07:00,
2013-06-29 04:12:00,65.0,63.5,29.63,SW,225,2.0,2.0,95,0.00,,,0.00,Weather View 32 v70,2013-06-29 08:12:00,
2013-06-29 04:17:00,65.0,63.5,29.63,SW,225,0.0,2.0,95,0.00,,,0.00,Weather View 32 v70,2013-06-29 08:17:00,
2013-06-29 04:22:00,65.0,63.5,29.63,SW,225,0.0,2.0,95,0.00,,,0.00,Weather View 32 v70,2013-06-29 08:22:00,
2013-06-29 04:27:00,65.0,63.2,29.63,SW,225,0.0,2.0,94,0.00,,,0.00,Weather View 32 v70,2013-06-29 08:27:00,
2013-06-29 04:32:00,65.0,63.2,29.63,SW,225,0.0,2.0,94,0.00,,,0.00,Weather View 32 v70,2013-06-29 08:32:00,
2013-06-29 04:37:00,64.0,62.2,29.63,SW,225,0.0,2.0,94,0.00,,,0.00,Weather View 32 v70,2013-06-29 08:37:00,
2013-06-29 04:42:00,64.0,62.5,29.63,SW,225,0.0,2.0,95,0.00,,,0.00,Weather View 32 v70,2013-06-29 08:42:00,
2013-06-29 04:47:00,64.0,62.5,29.63,SW,225,0.0,2.0,95,0.00,,,0.00,Weather View 32 v70,2013-06-29 08:47:00,
2013-06-29 04:52:00,64.0,61.9,29.63,SW,225,0.0,2.0,93,0.00,,,0.00,Weather View 32 v70,2013-06-29 08:52:00,
2013-06-29 04:57:00,64.0,61.6,29.63,SW,225,0.0,2.0,92,0.00,,,0.00,Weather View 32 v70,2013-06-29 08:57:00,
2013-06-29 05:02:00,64.0,61.9,29.63,SW,225,0.0,2.0,93,0.00,,,0.00,Weather View 32 v70,2013-06-29 09:02:00,
2013-06-29 05:07:00,64.0,61.6,29.62,SW,225,0.0,2.0,92,0.00,,,0.00,Weather View 32 v70,2013-06-29 09:07:00,
2013-06-29 05:12:00,64.0,61.6,29.62,SW,225,0.0,2.0,92,0.00,,,0.00,Weather View 32 v70,2013-06-29 09:12:00,
2013-06-29 05:17:00,63.0,60.6,29.62,SW,225,0.0,1.0,92,0.00,,,0.00,Weather View 32 v70,2013-06-29 09:17:00,
2013-06-29 05:22:00,64.0,61.3,29.62,SW,225,0.0,1.0,91,0.00,,,0.00,Weather View 32 v70,2013-06-29 09:22:00,
2013-06-29 05:27:00,64.0,61.3,29.62,SW,225,0.0,1.0,91,0.00,,,0.00,Weather View 32 v70,2013-06-29 09:27:00,
2013-06-29 05:32:00,64.0,61.3,29.62,WNW,292,0.0,6.0,91,0.00,,,0.00,Weather View 32 v70,2013-06-29 09:32:00,
2013-06-29 05:37:00,64.0,61.6,29.62,WNW,292,0.0,6.0,92,0.00,,,0.00,Weather View 32 v70,2013-06-29 09:37:00,
2013-06-29 05:42:00,64.0,61.6,29.62,WNW,292,0.0,6.0,92,0.00,,,0.00,Weather View 32 v70,2013-06-29 09:42:00,
2013-06-29 05:47:00,64.0,61.6,29.62,WNW,292,2.0,6.0,92,0.00,,,0.00,Weather View 32 v70,2013-06-29 09:47:00,
2013-06-29 05:52:00,64.0,61.3,29.63,WNW,292,0.0,6.0,91,0.00,,,0.00,Weather View 32 v70,2013-06-29 09:52:00,
2013-06-29 05:57:00,64.0,61.6,29.63,WNW,292,0.0,6.0,92,0.00,,,0.00,Weather View 32 v70,2013-06-29 09:57:00,
2013-06-29 06:02:00,64.0,61.6,29.63,WNW,292,0.0,6.0,92,0.00,,,0.00,Weather View 32 v70,2013-06-29 10:02:00,
2013-06-29 06:07:00,64.0,61.3,29.63,WNW,292,0.0,6.0,91,0.00,,,0.00,Weather View 32 v70,2013-06-29 10:07:00,
2013-06-29 06:12:00,64.0,61.3,29.63,WNW,292,0.0,6.0,91,0.00,,,0.00,Weather View 32 v70,2013-06-29 10:12:00,
2013-06-29 06:17:00,64.0,61.0,29.63,WNW,292,0.0,6.0,90,0.00,,,0.00,Weather View 32 v70,2013-06-29 10:17:00,
2013-06-29 06:22:00,64.0,61.0,29.63,WNW,292,0.0,6.0,90,0.00,,,0.00,Weather View 32 v70,2013-06-29 10:22:00,
2013-06-29 06:27:00,64.0,61.0,29.63,WNW,292,0.0,6.0,90,0.00,,,0.00,Weather View 32 v70,2013-06-29 10:27:00,
2013-06-29 06:32:00,63.0,60.0,29.63,WNW,292,0.0,3.0,90,0.00,,,0.00,Weather View 32 v70,2013-06-29 10:32:00,
2013-06-29 06:37:00,63.0,60.0,29.63,WNW,292,0.0,3.0,90,0.00,,,0.00,Weather View 32 v70,2013-06-29 10:37:00,
2013-06-29 06:42:00,63.0,60.0,29.63,WNW,292,0.0,3.0,90,0.00,,,0.00,Weather View 32 v70,2013-06-29 10:42:00,
2013-06-29 06:47:00,63.0,60.0,29.63,WNW,292,0.0,3.0,90,0.00,,,0.00,Weather View 32 v70,2013-06-29 10:47:00,
2013-06-29 06:52:00,63.0,60.0,29.63,WNW,292,0.0,2.0,90,0.00,,,0.00,Weather View 32 v70,2013-06-29 10:52:00,
2013-06-29 06:57:00,63.0,60.0,29.63,WNW,292,0.0,2.0,90,0.00,,,0.00,Weather View 32 v70,2013-06-29 10:57:00,
2013-06-29 07:02:00,64.0,61.0,29.63,WNW,292,0.0,2.0,90,0.00,,,0.00,Weather View 32 v70,2013-06-29 11:02:00,
2013-06-29 07:07:00,64.0,61.3,29.63,WNW,292,0.0,1.0,91,0.00,,,0.00,Weather View 32 v70,2013-06-29 11:07:00,
2013-06-29 07:12:00,65.0,62.0,29.63,WNW,292,0.0,1.0,90,0.00,,,0.00,Weather View 32 v70,2013-06-29 11:12:00,
2013-06-29 07:17:00,65.0,62.0,29.64,WNW,292,0.0,1.0,90,0.00,,,0.00,Weather View 32 v70,2013-06-29 11:17:00,
2013-06-29 07:22:00,66.0,63.0,29.64,WNW,292,0.0,0.0,90,0.00,,,0.00,Weather View 32 v70,2013-06-29 11:22:00,
2013-06-29 07:27:00,67.0,63.6,29.65,WNW,292,0.0,0.0,89,0.00,,,0.00,Weather View 32 v70,2013-06-29 11:27:00,
2013-06-29 07:32:00,67.0,63.3,29.65,WNW,292,2.0,0.0,88,0.00,,,0.00,Weather View 32 v70,2013-06-29 11:32:00,
2013-06-29 07:37:00,68.0,64.3,29.65,WNW,292,0.0,2.0,88,0.00,,,0.00,Weather View 32 v70,2013-06-29 11:37:00,
2013-06-29 07:42:00,68.0,64.3,29.65,WNW,292,0.0,2.0,88,0.00,,,0.00,Weather View 32 v70,2013-06-29 11:42:00,
2013-06-29 07:47:00,69.0,66.3,29.66,WNW,292,0.0,2.0,91,0.00,,,0.00,Weather View 32 v70,2013-06-29 11:47:00,
2013-06-29 07:52:00,70.0,67.6,29.66,WNW,292,0.0,2.0,92,0.00,,,0.00,Weather View 32 v70,2013-06-29 11:52:00,
2013-06-29 07:57:00,71.0,68.9,29.66,WNW,292,0.0,2.0,93,0.00,,,0.00,Weather View 32 v70,2013-06-29 11:57:00,
2013-06-29 08:02:00,71.0,69.2,29.67,WNW,292,4.0,4.0,94,0.00,,,0.00,Weather View 32 v70,2013-06-29 12:02:00,
2013-06-29 08:07:00,71.0,69.2,29.67,WNW,292,4.0,7.0,94,0.00,,,0.00,Weather View 32 v70,2013-06-29 12:07:00,
2013-06-29 08:12:00,72.0,70.2,29.67,WNW,292,0.0,7.0,94,0.00,,,0.00,Weather View 32 v70,2013-06-29 12:12:00,
2013-06-29 08:17:00,72.0,70.2,29.67,WNW,292,2.0,7.0,94,0.00,,,0.00,Weather View 32 v70,2013-06-29 12:17:00,
2013-06-29 08:22:00,72.0,70.2,29.67,WNW,292,4.0,7.0,94,0.00,,,0.00,Weather View 32 v70,2013-06-29 12:22:00,
2013-06-29 08:27:00,73.0,70.5,29.67,WNW,292,0.0,7.0,92,0.00,,,0.00,Weather View 32 v70,2013-06-29 12:27:00,
2013-06-29 08:32:00,73.0,70.5,29.67,WNW,292,2.0,7.0,92,0.00,,,0.00,Weather View 32 v70,2013-06-29 12:32:00,
2013-06-29 08:37:00,73.0,70.2,29.67,NW,315,2.0,7.0,91,0.00,,,0.00,Weather View 32 v70,2013-06-29 12:37:00,
2013-06-29 08:42:00,74.0,71.2,29.67,WNW,292,3.0,7.0,91,0.00,,,0.00,Weather View 32 v70,2013-06-29 12:42:00,
2013-06-29 08:47:00,74.0,70.5,29.67,WNW,292,3.0,7.0,89,0.00,,,0.00,Weather View 32 v70,2013-06-29 12:47:00,
2013-06-29 08:52:00,74.0,70.5,29.67,WNW,292,2.0,7.0,89,0.00,,,0.00,Weather View 32 v70,2013-06-29 12:52:00,
2013-06-29 08:57:00,74.0,70.5,29.67,WNW,292,2.0,7.0,89,0.00,,,0.00,Weather View 32 v70,2013-06-29 12:57:00,
2013-06-29 09:02:00,75.0,70.8,29.68,North,360,1.0,7.0,87,0.00,,,0.00,Weather View 32 v70,2013-06-29 13:02:00,
2013-06-29 09:07:00,75.0,69.5,29.68,WNW,292,5.0,7.0,83,0.00,,,0.00,Weather View 32 v70,2013-06-29 13:07:00,
2013-06-29 09:12:00,75.0,69.8,29.68,NW,315,1.0,7.0,84,0.00,,,0.00,Weather View 32 v70,2013-06-29 13:12:00,
2013-06-29 09:17:00,76.0,71.1,29.68,WNW,292,2.0,7.0,85,0.00,,,0.00,Weather View 32 v70,2013-06-29 13:17:00,
2013-06-29 09:22:00,76.0,70.8,29.69,WNW,292,4.0,7.0,84,0.00,,,0.00,Weather View 32 v70,2013-06-29 13:22:00,
2013-06-29 09:27:00,77.0,70.7,29.69,North,360,1.0,7.0,81,0.00,,,0.00,Weather View 32 v70,2013-06-29 13:27:00,
2013-06-29 09:32:00,77.0,69.2,29.69,WNW,292,2.0,7.0,77,0.00,,,0.00,Weather View 32 v70,2013-06-29 13:32:00,
2013-06-29 09:37:00,77.0,69.2,29.69,NW,315,3.0,7.0,77,0.00,,,0.00,Weather View 32 v70,2013-06-29 13:37:00,
2013-06-29 09:42:00,78.0,70.2,29.69,West,270,4.0,7.0,77,0.00,,,0.00,Weather View 32 v70,2013-06-29 13:42:00,
2013-06-29 09:47:00,78.0,69.0,29.69,WNW,292,4.0,7.0,74,0.00,,,0.00,Weather View 32 v70,2013-06-29 13:47:00,
2013-06-29 09:52:00,77.0,69.2,29.69,WNW,292,6.0,7.0,77,0.00,,,0.00,Weather View 32 v70,2013-06-29 13:52:00,
2013-06-29 09:57:00,78.0,70.9,29.69,WNW,292,3.0,7.0,79,0.00,,,0.00,Weather View 32 v70,2013-06-29 13:57:00,
2013-06-29 10:02:00,79.0,70.8,29.69,NW,315,0.0,7.0,76,0.00,,,0.00,Weather View 32 v70,2013-06-29 14:02:00,
2013-06-29 10:07:00,79.0,69.6,29.69,NW,315,5.0,7.0,73,0.00,,,0.00,Weather View 32 v70,2013-06-29 14:07:00,
2013-06-29 10:12:00,80.0,68.0,29.69,West,270,2.0,8.0,67,0.00,,,0.00,Weather View 32 v70,2013-06-29 14:12:00,
2013-06-29 10:17:00,80.0,68.9,29.69,NW,315,4.0,8.0,69,0.00,,,0.00,Weather View 32 v70,2013-06-29 14:17:00,
2013-06-29 10:22:00,80.0,69.7,29.69,North,360,0.0,8.0,71,0.00,,,0.00,Weather View 32 v70,2013-06-29 14:22:00,
2013-06-29 10:27:00,80.0,68.0,29.69,WNW,292,5.0,8.0,67,0.00,,,0.00,Weather View 32 v70,2013-06-29 14:27:00,
2013-06-29 10:32:00,79.0,67.1,29.69,WNW,292,6.0,8.0,67,0.00,,,0.00,Weather View 32 v70,2013-06-29 14:32:00,
2013-06-29 10:37:00,78.0,68.2,29.69,WNW,292,2.0,8.0,72,0.00,,,0.00,Weather View 32 v70,2013-06-29 14:37:00,
2013-06-29 10:42:00,77.0,68.0,29.69,WNW,292,3.0,8.0,74,0.00,,,0.00,Weather View 32 v70,2013-06-29 14:42:00,
2013-06-29 10:47:00,77.0,68.8,29.68,WNW,292,5.0,8.0,76,0.00,,,0.00,Weather View 32 v70,2013-06-29 14:47:00,
2013-06-29 10:52:00,76.0,70.4,29.68,WNW,292,4.0,9.0,83,0.00,,,0.00,Weather View 32 v70,2013-06-29 14:52:00,
2013-06-29 10:57:00,77.0,70.3,29.68,West,270,3.0,9.0,80,0.00,,,0.00,Weather View 32 v70,2013-06-29 14:57:00,
2013-06-29 11:02:00,78.0,69.8,29.68,WNW,292,2.0,9.0,76,0.00,,,0.00,Weather View 32 v70,2013-06-29 15:02:00,
2013-06-29 11:07:00,78.0,69.8,29.68,WNW,292,4.0,9.0,76,0.00,,,0.00,Weather View 32 v70,2013-06-29 15:07:00,
2013-06-29 11:12:00,79.0,69.2,29.68,WNW,292,3.0,9.0,72,0.00,,,0.00,Weather View 32 v70,2013-06-29 15:12:00,
2013-06-29 11:17:00,79.0,68.3,29.68,WNW,292,1.0,9.0,70,0.00,,,0.00,Weather View 32 v70,2013-06-29 15:17:00,
2013-06-29 11:22:00,78.0,67.4,29.68,WNW,292,7.0,9.0,70,0.00,,,0.00,Weather View 32 v70,2013-06-29 15:22:00,
2013-06-29 11:27:00,79.0,68.8,29.68,West,270,6.0,9.0,71,0.00,,,0.00,Weather View 32 v70,2013-06-29 15:27:00,
2013-06-29 11:32:00,78.0,67.8,29.68,WSW,247,1.0,9.0,71,0.00,,,0.00,Weather View 32 v70,2013-06-29 15:32:00,
2013-06-29 11:37:00,78.0,67.0,29.68,WNW,292,1.0,9.0,69,0.00,,,0.00,Weather View 32 v70,2013-06-29 15:37:00,
2013-06-29 11:42:00,78.0,68.6,29.68,NW,315,1.0,9.0,73,0.00,,,0.00,Weather View 32 v70,2013-06-29 15:42:00,
2013-06-29 11:47:00,78.0,67.8,29.68,WNW,292,7.0,9.0,71,0.00,,,0.00,Weather View 32 v70,2013-06-29 15:47:00,
2013-06-29 11:52:00,78.0,67.4,29.68,WNW,292,6.0,9.0,70,0.00,,,0.00,Weather View 32 v70,2013-06-29 15:52:00,
2013-06-29 11:57:00,77.0,66.8,29.68,WNW,292,6.0,9.0,71,0.00,,,0.00,Weather View 32 v70,2013-06-29 15:57:00,
2013-06-29 12:02:00,77.0,66.8,29.68,WNW,292,3.0,9.0,71,0.00,,,0.00,Weather View 32 v70,2013-06-29 16:02:00,
2013-06-29 12:07:00,77.0,69.2,29.67,WNW,292,2.0,9.0,77,0.00,,,0.00,Weather View 32 v70,2013-06-29 16:07:00,
2013-06-29 12:12:00,77.0,68.8,29.67,NW,315,1.0,9.0,76,0.00,,,0.00,Weather View 32 v70,2013-06-29 16:12:00,
2013-06-29 12:17:00,78.0,66.1,29.68,WNW,292,4.0,9.0,67,0.00,,,0.00,Weather View 32 v70,2013-06-29 16:17:00,
2013-06-29 12:22:00,78.0,67.8,29.68,WNW,292,0.0,9.0,71,0.00,,,0.00,Weather View 32 v70,2013-06-29 16:22:00,
2013-06-29 12:27:00,78.0,68.2,29.67,North,360,1.0,9.0,72,0.00,,,0.00,Weather View 32 v70,2013-06-29 16:27:00,
2013-06-29 12:32:00,79.0,68.8,29.67,North,360,3.0,9.0,71,0.00,,,0.00,Weather View 32 v70,2013-06-29 16:32:00,
2013-06-29 12:37:00,79.0,66.6,29.67,West,270,2.0,9.0,66,0.00,,,0.00,Weather View 32 v70,2013-06-29 16:37:00,
2013-06-29 12:42:00,79.0,66.6,29.67,NW,315,4.0,9.0,66,0.00,,,0.00,Weather View 32 v70,2013-06-29 16:42:00,
2013-06-29 12:47:00,79.0,67.1,29.67,WNW,292,4.0,9.0,67,0.00,,,0.00,Weather View 32 v70,2013-06-29 16:47:00,
2013-06-29 12:52:00,79.0,66.6,29.67,WNW,292,2.0,9.0,66,0.00,,,0.00,Weather View 32 v70,2013-06-29 16:52:00,
2013-06-29 12:57:00,80.0,68.4,29.67,NW,315,6.0,9.0,68,0.00,,,0.00,Weather View 32 v70,2013-06-29 16:57:00,
2013-06-29 13:02:00,80.0,65.8,29.67,WNW,292,2.0,9.0,62,0.00,,,0.00,Weather View 32 v70,2013-06-29 17:02:00,
2013-06-29 13:07:00,81.0,65.3,29.67,West,270,2.0,9.0,59,0.00,,,0.00,Weather View 32 v70,2013-06-29 17:07:00,
2013-06-29 13:12:00,81.0,65.3,29.67,WNW,292,6.0,9.0,59,0.00,,,0.00,Weather View 32 v70,2013-06-29 17:12:00,
2013-06-29 13:17:00,80.0,66.7,29.67,WNW,292,5.0,9.0,64,0.00,,,0.00,Weather View 32 v70,2013-06-29 17:17:00,
2013-06-29 13:22:00,81.0,68.5,29.67,WSW,247,4.0,9.0,66,0.00,,,0.00,Weather View 32 v70,2013-06-29 17:22:00,
2013-06-29 13:27:00,82.0,68.1,29.67,SW,225,1.0,9.0,63,0.00,,,0.00,Weather View 32 v70,2013-06-29 17:27:00,
2013-06-29 13:32:00,82.0,65.7,29.67,WNW,292,3.0,9.0,58,0.00,,,0.00,Weather View 32 v70,2013-06-29 17:32:00,
2013-06-29 13:37:00,81.0,67.2,29.67,NW,315,4.0,9.0,63,0.00,,,0.00,Weather View 32 v70,2013-06-29 17:37:00,
2013-06-29 13:42:00,79.0,70.8,29.67,WNW,292,3.0,9.0,76,0.00,,,0.00,Weather View 32 v70,2013-06-29 17:42:00,
2013-06-29 13:47:00,78.0,71.7,29.67,WNW,292,2.0,9.0,81,0.00,,,0.00,Weather View 32 v70,2013-06-29 17:47:00,
2013-06-29 13:52:00,77.0,72.1,29.67,NW,315,0.0,9.0,85,0.00,,,0.00,Weather View 32 v70,2013-06-29 17:52:00,
2013-06-29 13:57:00,76.0,72.2,29.66,NW,315,4.0,9.0,88,0.00,,,0.00,Weather View 32 v70,2013-06-29 17:57:00,
2013-06-29 14:02:00,74.0,72.8,29.67,WNW,292,8.0,10.0,96,0.09,,,0.11,Weather View 32 v70,2013-06-29 18:02:00,
2013-06-29 14:07:00,71.0,70.1,29.66,WNW,292,0.0,10.0,97,0.14,,,0.14,Weather View 32 v70,2013-06-29 18:07:00,
2013-06-29 14:12:00,70.0,68.2,29.67,North,360,3.0,10.0,94,0.14,,,0.14,Weather View 32 v70,2013-06-29 18:12:00,
2013-06-29 14:17:00,70.0,67.2,29.65,NW,315,3.0,10.0,91,0.14,,,0.14,Weather View 32 v70,2013-06-29 18:17:00,
2013-06-29 14:22:00,70.0,66.6,29.65,NW,315,2.0,10.0,89,0.14,,,0.14,Weather View 32 v70,2013-06-29 18:22:00,
2013-06-29 14:27:00,71.0,67.9,29.65,NW,315,1.0,10.0,90,0.14,,,0.14,Weather View 32 v70,2013-06-29 18:27:00,
2013-06-29 14:32:00,72.0,69.2,29.64,WNW,292,1.0,10.0,91,0.14,,,0.14,Weather View 32 v70,2013-06-29 18:32:00,
2013-06-29 14:37:00,72.0,69.9,29.64,WNW,292,1.0,10.0,93,0.14,,,0.14,Weather View 32 v70,2013-06-29 18:37:00,
2013-06-29 14:42:00,72.0,70.5,29.64,WNW,292,0.0,10.0,95,0.16,,,0.16,Weather View 32 v70,2013-06-29 18:42:00,
2013-06-29 14:47:00,73.0,70.8,29.64,WNW,292,0.0,10.0,93,0.17,,,0.17,Weather View 32 v70,2013-06-29 18:47:00,
2013-06-29 14:52:00,74.0,71.2,29.64,WNW,292,2.0,10.0,91,0.17,,,0.17,Weather View 32 v70,2013-06-29 18:52:00,
2013-06-29 14:57:00,74.0,71.5,29.64,NW,315,2.0,10.0,92,0.17,,,0.17,Weather View 32 v70,2013-06-29 18:57:00,
2013-06-29 15:02:00,75.0,72.2,29.64,NW,315,2.0,9.0,91,0.08,,,0.17,Weather View 32 v70,2013-06-29 19:02:00,
2013-06-29 15:07:00,76.0,73.2,29.64,WNW,292,3.0,6.0,91,0.03,,,0.17,Weather View 32 v70,2013-06-29 19:07:00,
2013-06-29 15:12:00,75.0,71.5,29.64,WNW,292,2.0,7.0,89,0.03,,,0.17,Weather View 32 v70,2013-06-29 19:12:00,
2013-06-29 15:17:00,76.0,72.8,29.65,WNW,292,0.0,7.0,90,0.03,,,0.17,Weather View 32 v70,2013-06-29 19:17:00,
2013-06-29 15:22:00,76.0,70.1,29.65,WNW,292,5.0,9.0,82,0.03,,,0.17,Weather View 32 v70,2013-06-29 19:22:00,
2013-06-29 15:27:00,76.0,69.0,29.65,West,270,0.0,9.0,79,0.03,,,0.17,Weather View 32 v70,2013-06-29 19:27:00,
2013-06-29 15:32:00,75.0,65.7,29.65,WNW,292,4.0,10.0,73,0.03,,,0.17,Weather View 32 v70,2013-06-29 19:32:00,
2013-06-29 15:37:00,74.0,69.5,29.65,WNW,292,2.0,10.0,86,0.03,,,0.17,Weather View 32 v70,2013-06-29 19:37:00,
2013-06-29 15:42:00,75.0,70.8,29.65,NW,315,1.0,10.0,87,0.01,,,0.17,Weather View 32 v70,2013-06-29 19:42:00,
2013-06-29 15:47:00,75.0,71.5,29.65,West,270,7.0,10.0,89,0.00,,,0.17,Weather View 32 v70,2013-06-29 19:47:00,
2013-06-29 15:48:00,75.0,71.5,29.65,NW,315,7.0,10.0,89,0.00,,,0.17,Weather View 32 v70,2013-06-29 19:48:00,
2013-06-29 15:53:00,75.0,71.5,29.65,WNW,292,4.0,10.0,89,0.00,,,0.17,Weather View 32 v70,2013-06-29 19:53:00,
2013-06-29 15:58:00,74.0,70.5,29.65,North,360,2.0,10.0,89,0.00,,,0.17,Weather View 32 v70,2013-06-29 19:58:00,
2013-06-29 16:03:00,73.0,69.6,29.66,North,360,0.0,10.0,89,0.00,,,0.17,Weather View 32 v70,2013-06-29 20:03:00,
2013-06-29 16:08:00,72.0,68.6,29.67,SE,135,0.0,10.0,89,0.00,,,0.17,Weather View 32 v70,2013-06-29 20:08:00,
2013-06-29 16:13:00,72.0,68.6,29.66,North,360,1.0,10.0,89,0.03,,,0.22,Weather View 32 v70,2013-06-29 20:13:00,
2013-06-29 16:18:00,71.0,66.6,29.66,North,360,4.0,11.0,86,0.18,,,0.36,Weather View 32 v70,2013-06-29 20:18:00,
2013-06-29 16:23:00,69.0,63.6,29.65,WNW,292,4.0,11.0,83,0.20,,,0.37,Weather View 32 v70,2013-06-29 20:23:00,
2013-06-29 16:28:00,69.0,63.6,29.65,WNW,292,0.0,11.0,83,0.26,,,0.44,Weather View 32 v70,2013-06-29 20:28:00,
2013-06-29 16:33:00,68.0,62.3,29.65,WNW,292,0.0,11.0,82,0.27,,,0.44,Weather View 32 v70,2013-06-29 20:33:00,
2013-06-29 16:38:00,68.0,61.9,29.64,North,360,0.0,11.0,81,0.27,,,0.44,Weather View 32 v70,2013-06-29 20:38:00,
2013-06-29 16:43:00,68.0,61.6,29.64,North,360,0.0,11.0,80,0.27,,,0.44,Weather View 32 v70,2013-06-29 20:43:00,
2013-06-29 16:48:00,69.0,62.6,29.64,North,360,1.0,11.0,80,0.27,,,0.44,Weather View 32 v70,2013-06-29 20:48:00,
2013-06-29 16:53:00,69.0,62.2,29.65,North,360,2.0,11.0,79,0.27,,,0.44,Weather View 32 v70,2013-06-29 20:53:00,
2013-06-29 16:58:00,69.0,61.8,29.64,NE,45,0.0,11.0,78,0.27,,,0.44,Weather View 32 v70,2013-06-29 20:58:00,
2013-06-29 17:03:00,70.0,62.8,29.65,ENE,67,2.0,11.0,78,0.27,,,0.44,Weather View 32 v70,2013-06-29 21:03:00,
2013-06-29 17:08:00,70.0,63.2,29.65,NE,45,2.0,11.0,79,0.27,,,0.44,Weather View 32 v70,2013-06-29 21:08:00,
2013-06-29 17:13:00,71.0,64.5,29.65,ENE,67,2.0,11.0,80,0.24,,,0.44,Weather View 32 v70,2013-06-29 21:13:00,
2013-06-29 17:18:00,71.0,65.2,29.65,NE,45,0.0,7.0,82,0.09,,,0.44,Weather View 32 v70,2013-06-29 21:18:00,
2013-06-29 17:23:00,71.0,65.9,29.65,NNE,22,1.0,6.0,84,0.07,,,0.44,Weather View 32 v70,2013-06-29 21:23:00,
2013-06-29 17:28:00,72.0,66.5,29.65,NNE,22,1.0,5.0,83,0.01,,,0.44,Weather View 32 v70,2013-06-29 21:28:00,
2013-06-29 17:33:00,72.0,67.2,29.65,NW,315,0.0,5.0,85,0.00,,,0.44,Weather View 32 v70,2013-06-29 21:33:00,
2013-06-29 17:38:00,72.0,67.6,29.65,NW,315,0.0,5.0,86,0.00,,,0.44,Weather View 32 v70,2013-06-29 21:38:00,
2013-06-29 17:43:00,72.0,67.6,29.66,NW,315,0.0,5.0,86,0.00,,,0.44,Weather View 32 v70,2013-06-29 21:43:00,
2013-06-29 17:48:00,72.0,67.9,29.66,SSW,202,0.0,5.0,87,0.00,,,0.44,Weather View 32 v70,2013-06-29 21:48:00,
2013-06-29 17:53:00,72.0,67.9,29.65,SSW,202,0.0,5.0,87,0.00,,,0.44,Weather View 32 v70,2013-06-29 21:53:00,
2013-06-29 17:58:00,72.0,67.9,29.65,SSW,202,0.0,5.0,87,0.00,,,0.44,Weather View 32 v70,2013-06-29 21:58:00,
2013-06-29 18:03:00,72.0,67.9,29.65,SSW,202,0.0,5.0,87,0.00,,,0.44,Weather View 32 v70,2013-06-29 22:03:00,
2013-06-29 18:08:00,72.0,67.9,29.65,SSW,202,0.0,4.0,87,0.00,,,0.45,Weather View 32 v70,2013-06-29 22:08:00,
2013-06-29 18:13:00,72.0,67.9,29.65,SSW,202,0.0,4.0,87,0.01,,,0.45,Weather View 32 v70,2013-06-29 22:13:00,
2013-06-29 18:18:00,71.0,67.3,29.64,WNW,292,4.0,6.0,88,0.01,,,0.45,Weather View 32 v70,2013-06-29 22:18:00,
2013-06-29 18:23:00,70.0,63.9,29.65,West,270,7.0,13.0,81,0.02,,,0.46,Weather View 32 v70,2013-06-29 22:23:00,
2013-06-29 18:28:00,70.0,62.8,29.65,West,270,0.0,13.0,78,0.03,,,0.47,Weather View 32 v70,2013-06-29 22:28:00,
2013-06-29 18:33:00,69.0,61.8,29.63,West,270,1.0,13.0,78,0.03,,,0.47,Weather View 32 v70,2013-06-29 22:33:00,
2013-06-29 18:38:00,68.0,60.9,29.64,WNW,292,2.0,13.0,78,0.03,,,0.47,Weather View 32 v70,2013-06-29 22:38:00,
2013-06-29 18:43:00,68.0,60.1,29.65,WNW,292,4.0,13.0,76,0.03,,,0.47,Weather View 32 v70,2013-06-29 22:43:00,
2013-06-29 18:48:00,68.0,61.2,29.65,NW,315,0.0,13.0,79,0.03,,,0.47,Weather View 32 v70,2013-06-29 22:48:00,
2013-06-29 18:53:00,68.0,61.2,29.65,NW,315,0.0,13.0,79,0.03,,,0.47,Weather View 32 v70,2013-06-29 22:53:00,
2013-06-29 18:58:00,68.0,61.6,29.64,NW,315,0.0,13.0,80,0.03,,,0.47,Weather View 32 v70,2013-06-29 22:58:00,
2013-06-29 19:03:00,68.0,62.3,29.64,NW,315,0.0,13.0,82,0.03,,,0.47,Weather View 32 v70,2013-06-29 23:03:00,
2013-06-29 19:08:00,68.0,62.6,29.64,NW,315,0.0,13.0,83,0.03,,,0.47,Weather View 32 v70,2013-06-29 23:08:00,
2013-06-29 19:13:00,67.0,61.3,29.64,NW,315,0.0,13.0,82,0.02,,,0.47,Weather View 32 v70,2013-06-29 23:13:00,
2013-06-29 19:18:00,67.0,61.0,29.65,NW,315,3.0,13.0,81,0.02,,,0.48,Weather View 32 v70,2013-06-29 23:18:00,
2013-06-29 19:23:00,67.0,61.6,29.64,NW,315,0.0,13.0,83,0.02,,,0.48,Weather View 32 v70,2013-06-29 23:23:00,
2013-06-29 19:28:00,67.0,61.3,29.65,NW,315,3.0,7.0,82,0.01,,,0.48,Weather View 32 v70,2013-06-29 23:28:00,
2013-06-29 19:33:00,67.0,60.2,29.65,WNW,292,5.0,7.0,79,0.01,,,0.48,Weather View 32 v70,2013-06-29 23:33:00,
2013-06-29 19:38:00,68.0,62.3,29.65,WNW,292,2.0,7.0,82,0.01,,,0.48,Weather View 32 v70,2013-06-29 23:38:00,
2013-06-29 19:43:00,68.0,62.6,29.64,WNW,292,0.0,7.0,83,0.01,,,0.48,Weather View 32 v70,2013-06-29 23:43:00,
2013-06-29 19:48:00,68.0,63.3,29.64,WNW,292,2.0,5.0,85,0.01,,,0.48,Weather View 32 v70,2013-06-29 23:48:00,
2013-06-29 19:53:00,68.0,63.3,29.64,WNW,292,0.0,5.0,85,0.01,,,0.48,Weather View 32 v70,2013-06-29 23:53:00,
2013-06-29 19:58:00,68.0,63.6,29.64,WNW,292,1.0,5.0,86,0.01,,,0.48,Weather View 32 v70,2013-06-29 23:58:00,
2013-06-29 20:03:00,68.0,64.0,29.64,WNW,292,2.0,5.0,87,0.01,,,0.48,Weather View 32 v70,2013-06-30 00:03:00,
2013-06-29 20:08:00,67.0,63.6,29.64,WNW,292,3.0,5.0,89,0.01,,,0.48,Weather View 32 v70,2013-06-30 00:08:00,
2013-06-29 20:13:00,67.0,63.6,29.64,WNW,292,0.0,5.0,89,0.01,,,0.48,Weather View 32 v70,2013-06-30 00:13:00,
2013-06-29 20:18:00,68.0,64.9,29.64,North,360,0.0,5.0,90,0.01,,,0.48,Weather View 32 v70,2013-06-30 00:18:00,
2013-06-29 20:23:00,68.0,64.9,29.64,North,360,0.0,5.0,90,0.00,,,0.48,Weather View 32 v70,2013-06-30 00:23:00,
2013-06-29 20:28:00,68.0,64.9,29.65,North,360,0.0,5.0,90,0.00,,,0.48,Weather View 32 v70,2013-06-30 00:28:00,
2013-06-29 20:33:00,68.0,64.9,29.65,ENE,67,0.0,5.0,90,0.00,,,0.48,Weather View 32 v70,2013-06-30 00:33:00,
2013-06-29 20:38:00,68.0,64.9,29.65,ENE,67,0.0,4.0,90,0.00,,,0.48,Weather View 32 v70,2013-06-30 00:38:00,
2013-06-29 20:43:00,68.0,64.9,29.65,ENE,67,0.0,4.0,90,0.00,,,0.48,Weather View 32 v70,2013-06-30 00:43:00,
2013-06-29 20:48:00,67.0,63.6,29.65,ENE,67,0.0,4.0,89,0.00,,,0.48,Weather View 32 v70,2013-06-30 00:48:00,
2013-06-29 20:53:00,67.0,63.3,29.65,ENE,67,1.0,4.0,88,0.00,,,0.48,Weather View 32 v70,2013-06-30 00:53:00,
2013-06-29 20:58:00,66.0,62.0,29.65,NE,45,0.0,4.0,87,0.00,,,0.48,Weather View 32 v70,2013-06-30 00:58:00,
2013-06-29 21:03:00,66.0,61.7,29.65,NE,45,0.0,4.0,86,0.00,,,0.48,Weather View 32 v70,2013-06-30 01:03:00,
2013-06-29 21:08:00,66.0,61.7,29.65,NE,45,3.0,4.0,86,0.00,,,0.48,Weather View 32 v70,2013-06-30 01:08:00,
2013-06-29 21:13:00,66.0,61.3,29.65,NE,45,1.0,5.0,85,0.00,,,0.48,Weather View 32 v70,2013-06-30 01:13:00,
2013-06-29 21:18:00,65.0,60.0,29.65,NE,45,0.0,5.0,84,0.00,,,0.48,Weather View 32 v70,2013-06-30 01:18:00,
2013-06-29 21:23:00,65.0,59.7,29.65,NE,45,0.0,5.0,83,0.00,,,0.48,Weather View 32 v70,2013-06-30 01:23:00,
2013-06-29 21:28:00,65.0,59.4,29.66,SE,135,1.0,5.0,82,0.00,,,0.48,Weather View 32 v70,2013-06-30 01:28:00,
2013-06-29 21:33:00,65.0,59.7,29.66,SE,135,0.0,5.0,83,0.00,,,0.48,Weather View 32 v70,2013-06-30 01:33:00,
2013-06-29 21:38:00,65.0,59.7,29.67,SE,135,0.0,5.0,83,0.00,,,0.48,Weather View 32 v70,2013-06-30 01:38:00,
2013-06-29 21:43:00,65.0,59.4,29.67,SE,135,0.0,5.0,82,0.00,,,0.48,Weather View 32 v70,2013-06-30 01:43:00,
2013-06-29 21:48:00,65.0,59.0,29.67,SE,135,0.0,5.0,81,0.00,,,0.48,Weather View 32 v70,2013-06-30 01:48:00,
2013-06-29 21:53:00,65.0,58.3,29.67,WSW,247,0.0,5.0,79,0.00,,,0.48,Weather View 32 v70,2013-06-30 01:53:00,
2013-06-29 22:00:00,65.0,58.0,29.68,WNW,292,1.0,5.0,78,0.00,,,0.48,Weather View 32 v70,2013-06-30 02:00:00,
2013-06-29 22:05:00,65.0,57.6,29.68,WNW,292,2.0,5.0,77,0.00,,,0.48,Weather View 32 v70,2013-06-30 02:05:00,
2013-06-29 22:15:00,65.0,57.6,29.68,WNW,292,0.0,5.0,77,0.00,,,0.48,Weather View 32 v70,2013-06-30 02:15:00,
2013-06-29 22:20:00,65.0,57.2,29.68,WNW,292,2.0,5.0,76,0.00,,,0.48,Weather View 32 v70,2013-06-30 02:20:00,
2013-06-29 22:25:00,65.0,57.2,29.68,WNW,292,2.0,5.0,76,0.00,,,0.48,Weather View 32 v70,2013-06-30 02:25:00,
2013-06-29 22:35:00,65.0,56.5,29.68,WNW,292,0.0,5.0,74,0.00,,,0.48,Weather View 32 v70,2013-06-30 02:35:00,
2013-06-29 22:40:00,65.0,56.5,29.68,WNW,292,2.0,5.0,74,0.00,,,0.48,Weather View 32 v70,2013-06-30 02:40:00,
2013-06-29 22:45:00,65.0,56.1,29.68,WNW,292,2.0,6.0,73,0.00,,,0.48,Weather View 32 v70,2013-06-30 02:45:00,
2013-06-29 22:50:00,65.0,56.1,29.69,WNW,292,4.0,6.0,73,0.00,,,0.48,Weather View 32 v70,2013-06-30 02:50:00,
2013-06-29 23:00:00,66.0,57.1,29.69,WNW,292,0.0,6.0,73,0.00,,,0.48,Weather View 32 v70,2013-06-30 03:00:00,
2013-06-29 23:05:00,65.0,56.1,29.68,WNW,292,0.0,6.0,73,0.00,,,0.48,Weather View 32 v70,2013-06-30 03:05:00,
2013-06-29 23:15:00,65.0,56.1,29.68,WNW,292,0.0,6.0,73,0.00,,,0.48,Weather View 32 v70,2013-06-30 03:15:00,
2013-06-29 23:20:00,65.0,56.1,29.68,WNW,292,0.0,6.0,73,0.00,,,0.48,Weather View 32 v70,2013-06-30 03:20:00,
2013-06-29 23:30:00,65.0,56.1,29.68,WNW,292,0.0,6.0,73,0.00,,,0.48,Weather View 32 v70,2013-06-30 03:30:00,
2013-06-29 23:35:00,65.0,56.1,29.68,WNW,292,0.0,6.0,73,0.00,,,0.48,Weather View 32 v70,2013-06-30 03:35:00,
2013-06-29 23:40:00,65.0,56.1,29.68,WNW,292,0.0,6.0,73,0.00,,,0.48,Weather View 32 v70,2013-06-30 03:40:00,
2013-06-29 23:45:00,65.0,56.5,29.68,WNW,292,0.0,6.0,74,0.00,,,0.48,Weather View 32 v70,2013-06-30 03:45:00,
2013-06-29 23:50:00,65.0,56.5,29.67,WNW,292,0.0,6.0,74,0.00,,,0.48,Weather View 32 v70,2013-06-30 03:50:00,
2013-06-29 23:55:00,65.0,56.5,29.67,WNW,292,0.0,6.0,74,0.00,,,0.48,Weather View 32 v70,2013-06-30 03:55:00,